Погода в Камышине

Хотите узнать прогноз погоды в Камышине? Тогда Вам сюда: Погода в Камышине

Поиск расширенной информации на нашем сайте:

Полезная информация:

Новости сайта



02.01.2020
Опубликован Долгосрочный прогноз погоды по городам России и ближнего зарубежья на январь 2020 года.
Карты: Прогноз на январь и февраль 2020 года, Сравнение прогнозируемой аномалии приземной температуры воздуха на январь 2020 года по разным моделям.




Погода в Камышине - сегодня

Время (UTC), дата Ветер
(°,м/с) 
Видим.   Явления Облачность Т
(°С)
Тd
(°С)
f(%) Тe
(°С)
Pmin
(гПа)
dP
(гПа)
Po
(мм)
O2
(г/м3)
Тmin Tmax R s Состояние
почвы
00 16.01.22 280 (З) 20000 м    4/4 300 м 
[Sc]
-5.4 -6.6 91 -10  997.7  1.7  737  304           
03 16.01.22 280 (З) 8{10}  20000 м    9/9 300 м 
[Sc]
-3.8 -5.1 91 -9  998.1  0.5  737  302  -5.8      27  неравномерный
сухой снег
100% 
06 16.01.22 300 (СЗ) 7-10{11}  10 км  в посл. час ливневой снег  9/9 300 м 
[Sc]
-3 -4.8 87 -7  1000.8  2.8  739  302           
09 16.01.22 310 (СЗ) 8-10{11}  10 км  метель{снег}  10/10 300 м 
[St]
-2.9 -4.3 90 -8  1003.2  2.3  741  302           
12 16.01.22 300 (СЗ) 7{12}  10 км  {снег}  8/5 300 м средняя 
[St|As trans]
-3.4 -5.4 86 -8  1005  1.8  742  303           
15 16.01.22 300 (СЗ) 8-10{12}  10 км    8/8 300 м средняя 
[Sc|Ac trans]
-4.3 -6.3 86 -9  1007.9  2.8  744  305    -2.5  0.1     
18 16.01.22 300 (СЗ) 6{11}  10 км    9/9 300 м 
[Sc]
-5.3 -7.2 86 -10  1010.7  2.6  746  307           
21 16.01.22 300 (СЗ) 10 км    ясно 
-8.9 -10.5 88 -15  1012.9  748  312           
00 17.01.22 240 (ЮЗ) 10 км    ясно 
-11.8 -12.9 91 -16  1014  0.9  749  316           
03 17.01.22 280 (З) 8{10}  10 км    ясно 
-8.6 -10.8 84 -15  1013.9  0.1  749  312  -11.8      27  неравномерный
сухой снег
100% 
06 17.01.22 230 (ЮЗ) 20000 м    3/0 средняя 
[Ac lent]
-9.2 -11.8 81 -13  1014.4  0.4  749  313           
09 17.01.22 220 (ЮЗ) 20000 м    8/8 600 м 
[Sc]
-5 -8.3 78 -9  1013  -1.1  748  308           
12 17.01.22 210 (ЮЗ) 8-10{11}  20000 м    4/4 600 м 
[Sc]
-3.7 -5.8 85 -9  1011.3  -1.5  747  306           
15 17.01.22 190 (Ю) 6{12}  10 км    9/9 300 м 
[Sc]
-4.8 -5.8 93 -9  1009.7  -1.7  746  306    -3.5       
18 17.01.22 200 (Ю) 8-10{11}  10 км    9/9 300 м 
[Sc]
-3.4 -4.5 92 -8  1008.3  -1.3  745  304           
21 17.01.22 200 (Ю) 9-11{11}  10 км    9/9 600 м 
[Sc]
-2 -4 86 -7  1006.9  -1.3  744  302           
00 18.01.22 180 (Ю) 10-12{12}  10 км  позёмок{ливн. осадки}  10/10 300 м 
[St]
-2.9 -4.1 91 -8  1006.6  -0.4  743  303           
03 18.01.22 190 (Ю) 8-11{13}  4000 м  слаб. снег  10/10 200 м 
[Frnb|Ns]
-1.4 -1.7 98 -6  1005.5  -1  743  301  -4.9    0.7  27  неравномерный
сухой снег
100% 
06 18.01.22 190 (Ю) 11-15{16}  2000 м  слаб. снег  10/10 200 м 
[Frnb|Ns]
-1.4 -1.8 97 -7  1006.4  0.9  743  301           
09 18.01.22 180 (Ю) 11-15{16}  2000 м  слаб. снег  10/5 200 м средняя 
[Frnb|As op]
-1.6 -2.1 96 -7  1006.8  0.4  744  302           
12 18.01.22 190 (Ю) 8-11{15}  10 км  {снег}  10/10 300 м 
[St]
-1 -2.3 91 -5  1008.1  1.4  745  301           
15 18.01.22 170 (Ю) 6{12}  10 км    10/10 300 м 
[St]
-0.7 -1.9 92 -4  1009.4  1.2  746  301    -0.7  0.3     
18 18.01.22 160 (Ю) 10 км  {ливн. осадки}  10/10 300 м 
[St]
-1.1 -2.1 93 -4  1010.5  1.1  746  302           
21 18.01.22 170 (Ю) 6{10}  4000 м  слаб. ливневой снег  10/10 200 м кучево-дожд. 
[Cb calv]
-0.7 -1.1 97 -4  1011  0.5  747  302           
00 19.01.22 190 (Ю) 7{11}  0500 м  слаб. снег{ливн. осадки}  ?/?  
-0.4 -0.4 100 -4  1011.6  0.6  747  302           
Время (UTC), дата Ветер
(°,м/с) 
Видим.   Явления Облачность Т
(°С)
Тd
(°С)
f(%) Тe
(°С)
Pmin
(гПа)
dP
(гПа)
Po
(мм)
O2
(г/м3)
Тmin Tmax R s Состояние
почвы

Для получения пояснительной информации подведите курсор к названию столбца.

ПОГОДА в Камышине - архив

Всё, что Вы хотите узнать о погоде в Камышине - удобно и подробно!

Выберите нужную дату (начиная с 1 января 2019* года) и нажмите кнопку "Найти".
Будут отображены архивные сводки погоды по пункту Камышин, начиная с указанной даты.


Отображать данные в формате CSV (для использования в таблицах Excel)


Внимание! Наш архив погоды предназначен исключительно для личного некоммерческого использования в познавательных целях. Если Вам необходимы официальные справки о состоянии погоды (для производственных, юридических, коммерческих и т.п. целей), обращайтесь в органы Росгидромета.

*Примечание: данная дата относится к архиву по метеостанциям СССР (Россия, СНГ, Балтия).
Архив по метеостанциям Зарубежной Европы и Азии (кроме Китая) хранится 10 дней, по другим регионам земного шара (Китай, Африка, Америка, Австралия, Океания) - 1 день.

Камышин - район местоположения метеостанции


Название, широта, долгота, высота метеостанции:
Камышин 50.1°ш. 45.4°д. 119 м над ур. моря [Российская Федерация]

Дополнительная информация

В oтличие oт бoльшинства пoгoдных сайтoв мы публикуем пoдрoбную метеoинфoрмацию в детальнoм прoфессиoнальнoм фoрмате.

Характеристики температуры и влажнoсти вoздуха измеряются на высoте 2 м в тени вдали oт зданий и деревьев.
Скoрoсть ветра измеряется на высoте 10 м (на урoвне рoста челoвека скoрoсть ветра ниже в 1.5-2 раза). Если метеoстанция нахoдится в гoрoде или в лесу, тo скoрoсть ветра занижена на 2-4 м/с пo сравнению с oткрытым местoм. Скoрoсть ветра над акватoриями крупных рек и oзёр, а также на вершинах хoлмoв на 2-5 м/с выше, чем в oбычных услoвиях.
Атмoсфернoе давление в разных тoчках местнoсти мoжет значительнo oтличаться oт давления на метеoстанции, в зависимoсти oт услoвий рельефа (при пoдъёме на 10 м давление пoнижается примернo на 1 мм рт.ст.).